Theta_e
314 315 315 317 317 317 323 323 322 329 329 328 327 327 325 325 322 323 321 321 319 316 312 312 316 318 322 319 324 324 323 322 321 321 322 320 320 320 321 320 320 321 321 321 321 320 320 321 322 323 323 323 322 313 313 312 313 314 314 315 316 316
314 314 314 316 316 317 317 319 314 315 321 321 324 322 321 318 321 314 320 316 314 316 312 311 317 320 319 318 319 322 322 321 321 321 321 320 320 320 320 320 320 320 321 320 320 313 314 317 320 321 322 322 314 312 313 313 313 313 315 313 317 317
313 313 313 314 315 315 313 314 313 313 316 320 320 318 313 316 313 313 315 313 316 312 312 311 316 318 318 320 318 321 321 320 320 319 321 320 319 319 320 319 319 320 319 318 313 311 312 311 311 319 319 313 312 313 313 313 313 314 313 313 316 320
314 312 313 313 314 314 312 313 313 312 312 313 312 314 312 312 312 313 313 314 312 313 311 309 317 317 317 311 312 317 320 319 319 318 320 317 317 317 319 318 318 318 316 313 312 311 312 311 312 313 312 312 312 313 313 313 313 312 313 314 315 321
312 313 312 312 313 315 312 313 314 312 312 312 312 312 311 311 311 311 313 314 312 313 309 309 309 309 309 309 309 310 310 310 311 309 317 311 311 310 312 310 311 313 311 312 311 311 311 312 313 313 312 312 312 313 313 313 312 312 312 313 314 322
313 314 312 312 312 316 313 311 313 315 312 312 312 311 311 311 311 311 311 315 313 310 309 309 309 309 309 309 309 309 310 310 309 310 313 311 310 310 310 310 310 311 311 311 311 311 311 313 311 312 312 312 312 313 312 311 311 312 312 313 314 321
312 314 313 313 313 312 311 312 313 318 314 313 312 311 311 311 312 311 311 314 312 309 308 308 308 308 308 309 309 309 309 310 309 309 311 310 310 310 310 310 310 310 310 310 310 310 311 311 312 311 311 311 312 312 311 310 310 311 312 313 315 320
312 314 313 313 313 312 311 312 316 316 315 319 313 312 311 312 311 311 313 312 316 309 308 308 307 307 308 308 309 309 309 309 310 310 311 311 309 310 310 310 310 310 310 310 309 310 310 311 311 311 310 310 312 311 310 310 310 311 312 312 313 317
311 314 313 313 313 311 312 312 311 311 313 319 311 311 311 312 310 311 311 312 315 311 308 307 307 307 308 308 308 308 309 309 310 309 310 309 310 309 309 310 310 310 310 309 309 309 311 310 310 311 310 310 311 310 310 310 310 310 311 312 312 314
311 314 313 313 313 312 312 311 311 310 313 315 311 311 312 310 310 310 310 310 311 313 309 307 307 307 307 308 308 308 309 308 309 309 310 309 310 310 309 309 310 310 309 309 309 309 310 309 309 310 310 310 310 309 310 309 309 310 311 312 312 314
312 316 314 313 314 312 313 312 314 310 311 311 311 312 311 310 310 309 311 309 310 311 312 308 308 307 308 307 308 308 308 309 308 309 310 309 310 311 310 310 310 309 309 309 309 309 309 309 308 308 309 309 309 309 309 309 310 311 311 311 312 314
312 313 315 313 315 312 312 312 313 311 311 311 314 309 309 309 312 309 310 309 310 310 314 308 308 308 310 307 307 307 307 308 308 308 310 309 309 310 310 310 310 311 311 311 310 309 310 308 307 307 308 308 309 309 309 309 310 310 311 312 313 313
312 311 313 313 312 312 312 313 311 311 313 313 310 310 310 308 309 310 310 309 309 311 313 308 308 308 310 307 308 307 307 309 308 309 309 310 309 310 310 310 310 312 311 311 310 309 310 309 307 307 308 308 308 308 309 309 310 310 311 312 312 312
315 309 315 313 315 312 312 315 316 310 313 311 310 309 312 308 310 310 309 308 308 311 311 309 308 307 308 307 308 307 307 307 308 309 309 309 309 309 309 309 310 311 311 310 309 309 309 307 307 307 308 308 308 308 309 309 310 310 311 311 311 311
314 309 311 312 311 313 314 312 313 311 310 310 311 309 309 308 308 309 309 308 308 311 310 309 309 307 307 307 308 307 307 307 308 310 308 309 309 309 309 309 311 310 310 310 310 310 309 307 307 306 307 308 307 308 310 309 309 310 311 311 311 310
309 309 309 313 311 311 311 312 313 316 310 310 309 308 308 308 308 308 309 308 308 311 310 308 309 308 307 307 308 307 307 308 308 309 308 309 310 309 309 310 311 311 309 309 310 308 309 308 307 307 307 308 308 310 309 308 309 310 310 311 310 310
309 309 310 310 311 311 312 311 312 313 311 310 309 308 308 308 308 308 308 308 308 310 309 308 309 308 307 308 308 306 307 308 309 308 308 308 309 309 309 310 311 312 311 309 309 308 308 308 307 307 307 307 308 309 308 309 309 310 310 310 311 312
309 310 309 310 311 310 311 311 310 310 314 310 309 309 308 308 307 307 308 308 308 308 310 308 308 308 307 310 309 307 307 308 309 308 308 308 308 310 311 311 310 311 312 310 309 308 307 307 307 306 306 307 307 308 307 308 308 311 308 308 310 310
310 308 309 309 312 310 311 311 310 308 308 310 309 310 308 308 307 307 307 307 309 308 309 308 308 308 308 309 307 307 307 308 309 308 308 308 309 310 311 311 310 310 312 311 310 309 308 307 306 305 306 307 307 307 308 309 307 307 307 307 308 309
307 308 310 309 310 309 309 309 307 307 306 307 308 312 308 306 307 307 308 307 307 306 307 309 308 307 307 309 307 307 307 308 308 308 308 307 308 308 309 309 310 311 310 311 311 310 308 307 305 305 306 307 307 307 308 308 307 306 307 307 306 307
306 308 310 308 309 307 306 305 305 305 304 305 308 309 306 305 307 307 307 306 307 306 306 306 309 307 307 308 308 307 307 307 308 309 308 307 308 309 310 310 311 311 311 309 309 310 308 307 304 304 305 305 306 308 309 307 306 306 306 306 306 305
306 307 308 308 306 307 306 306 305 305 304 305 305 305 304 305 307 307 306 306 306 305 305 306 308 308 308 307 306 306 306 306 307 308 309 308 309 310 309 310 310 310 312 310 308 309 308 305 303 301 300 301 304 306 310 307 304 306 306 305 305 305
306 306 307 311 307 306 306 306 305 305 304 306 306 307 305 307 306 306 305 305 306 305 305 305 306 308 307 307 306 306 306 306 307 309 307 306 307 307 308 309 310 309 309 309 308 310 309 307 302 304 304 301 299 299 305 306 304 305 306 305 305 304
305 305 306 311 312 308 309 307 307 306 306 306 306 309 305 305 305 306 304 304 305 305 305 305 305 306 307 307 307 306 306 306 306 308 307 306 306 307 308 309 309 310 310 306 306 306 310 309 306 304 299 299 300 300 297 300 302 302 307 305 304 304
305 305 305 309 306 307 307 305 305 305 306 304 304 303 303 303 304 307 305 303 304 304 304 305 305 305 307 307 307 306 305 306 306 307 308 306 306 307 308 309 309 308 309 307 306 306 307 309 307 309 303 301 299 298 297 300 303 300 305 303 303 304
305 305 305 306 307 306 305 303 303 302 300 299 299 300 301 301 302 302 301 303 304 304 304 304 305 305 305 308 306 305 305 305 306 307 308 306 306 307 307 308 308 308 308 309 308 306 305 309 309 309 308 307 305 298 298 301 301 295 303 304 303 303
305 305 306 305 306 308 302 302 302 302 301 300 299 300 301 302 302 303 302 302 302 303 304 303 304 304 304 306 307 305 304 305 305 306 309 306 305 306 307 308 309 308 308 309 309 306 305 306 308 308 309 308 308 307 306 302 297 299 295 300 302 302
306 308 305 305 305 309 303 302 301 302 307 302 301 300 302 303 303 306 301 302 302 302 303 304 303 303 304 304 307 305 304 304 305 306 308 305 305 306 306 307 308 308 308 308 308 306 305 306 303 304 308 306 307 306 306 305 304 300 297 294 296 303
303 304 303 307 306 304 309 302 302 301 301 304 305 304 304 304 302 302 301 301 301 302 302 303 303 303 303 303 306 305 303 304 304 306 307 305 305 306 306 306 305 305 305 306 307 308 306 305 304 303 304 304 305 304 304 304 304 303 298 296 296 297
303 303 304 303 303 303 303 306 302 301 301 301 302 301 301 301 301 301 300 300 300 301 301 302 302 303 302 303 303 304 303 303 304 306 307 304 305 305 306 306 305 304 304 304 306 306 306 305 305 305 305 304 302 302 302 301 301 302 301 300 295 296
302 302 303 302 302 302 302 302 302 301 301 301 301 301 300 300 300 300 300 300 300 300 301 301 302 302 302 302 303 304 303 303 305 305 305 304 304 305 305 306 306 305 303 303 303 304 304 305 305 305 305 304 303 302 301 299 300 300 300 298 298 298
301 301 302 303 302 302 302 302 302 302 302 301 301 301 300 299 299 299 299 299 300 300 300 301 301 301 301 301 303 302 303 302 303 303 303 304 305 305 305 306 306 306 305 303 303 304 303 303 304 304 304 304 304 304 304 303 303 302 301 300 299 298
301 301 301 301 301 301 301 301 301 302 303 306 301 301 301 299 299 299 299 299 299 299 299 299 299 299 300 301 302 301 302 301 301 303 304 304 305 306 305 306 306 306 306 304 303 302 302 303 303 303 303 304 304 304 303 304 304 303 303 303 301 299
301 301 302 300 301 300 300 301 301 301 302 302 302 302 301 300 300 299 299 299 299 299 299 299 299 299 300 301 301 301 302 301 302 302 304 304 305 306 306 306 305 305 305 306 305 303 303 303 303 304 305 304 303 303 304 305 305 304 302 301 300 299
301 301 300 300 300 300 300 300 300 301 302 305 303 301 302 304 300 300 300 299 299 299 299 299 299 300 301 300 301 301 302 301 301 302 303 303 305 305 305 306 306 305 306 306 306 306 305 304 302 303 303 303 304 304 305 305 305 304 305 303 302 301
301 301 303 303 300 299 300 301 300 300 301 305 305 302 302 303 301 301 300 300 299 299 299 299 300 300 299 299 300 300 300 300 301 301 302 303 304 305 305 305 304 304 304 306 305 305 305 305 305 304 304 304 303 303 304 305 305 306 306 305 304 304
301 301 302 303 300 300 300 300 300 300 300 300 300 300 299 300 300 301 301 300 299 300 300 300 299 301 298 299 299 300 299 300 300 301 301 302 303 304 305 304 304 304 303 304 305 304 305 305 305 306 306 306 305 305 305 305 305 305 305 306 305 305
Wind_Speed
7 8 7 6 6 7 8 12 10 13 16 15 15 15 15 13 12 10 11 12 11 7 7 6 7 7 12 10 14 15 15 16 16 15 16 15 14 14 14 15 15 16 15 16 15 15 15 16 16 16 16 15 14 6 6 6 6 5 5 5 6 6
7 8 6 5 4 5 5 7 7 5 6 8 10 10 7 6 7 4 9 7 6 5 6 6 6 8 5 9 10 16 16 16 16 16 15 15 15 15 15 15 16 16 17 17 18 8 7 12 16 16 16 16 8 5 6 6 6 5 6 6 6 8
7 7 6 5 4 4 4 4 6 6 5 8 7 6 5 5 4 5 5 6 5 5 5 6 6 9 8 13 11 15 15 15 15 15 14 15 15 15 15 16 17 16 17 18 9 6 7 6 7 14 13 8 6 5 6 6 6 5 6 6 6 13
6 6 6 6 5 5 5 4 5 5 5 5 5 5 4 5 5 5 5 5 5 5 5 5 8 11 10 6 7 11 14 14 13 13 15 10 11 12 16 15 15 16 11 6 6 6 6 6 6 6 6 6 6 6 6 6 5 5 6 7 6 15
6 5 5 6 5 6 4 5 5 5 5 5 5 5 5 4 5 6 6 5 5 4 5 5 5 5 5 6 5 6 6 6 5 6 11 7 6 7 7 7 6 7 6 6 6 6 6 6 5 6 6 6 6 5 6 5 6 6 6 6 7 15
5 6 4 5 4 3 6 6 5 4 4 5 4 4 5 5 6 5 5 5 5 6 6 6 5 6 6 5 5 5 6 5 6 6 6 6 6 6 6 5 6 6 5 5 6 6 6 6 6 6 5 5 6 5 5 6 6 6 6 6 7 16
6 6 7 5 4 5 5 4 4 3 4 5 4 5 5 5 5 5 5 4 5 6 6 5 5 5 6 5 5 5 6 5 6 6 5 5 6 6 6 6 6 6 6 6 6 6 7 6 6 6 6 6 5 5 5 6 6 6 6 6 8 17
6 6 6 5 5 5 4 4 4 3 4 4 4 5 5 5 5 6 5 5 4 4 5 5 5 6 6 5 6 6 5 6 5 5 6 5 6 6 6 6 6 6 8 8 7 6 6 6 6 6 6 6 6 5 6 6 6 6 6 6 6 12
6 6 6 5 6 4 4 4 4 4 5 4 4 4 4 4 5 5 5 5 4 5 5 5 6 6 5 6 6 6 6 6 5 6 6 7 6 7 7 6 6 9 8 8 7 7 7 6 5 5 5 6 6 6 6 6 6 7 6 6 6 9
6 5 5 5 5 5 4 4 4 4 4 3 4 4 4 5 5 5 5 5 5 5 5 5 6 6 6 6 6 6 6 6 6 6 6 7 6 7 6 6 6 8 9 8 7 7 8 6 6 6 6 7 6 6 6 6 7 6 6 6 6 7
6 5 5 6 5 5 4 5 5 3 4 5 4 5 5 5 5 5 5 6 6 6 5 6 6 6 5 6 6 6 7 6 7 7 6 6 6 7 7 5 5 8 7 8 7 6 7 7 7 6 6 6 6 6 6 6 6 6 6 6 6 6
6 5 6 6 4 5 5 4 3 4 5 5 5 5 5 5 5 5 6 6 6 6 5 6 6 6 6 6 6 7 7 7 7 7 6 6 6 7 6 6 7 6 8 7 7 7 6 6 7 6 6 7 6 6 6 6 6 6 6 6 6 6
5 6 6 5 5 3 4 4 5 4 5 5 5 5 5 5 5 5 5 6 6 6 5 6 6 6 6 6 7 7 7 7 7 7 7 7 7 6 6 7 9 7 8 6 6 7 6 6 7 6 6 7 6 6 6 6 5 6 6 6 6 7
5 7 5 5 4 5 5 4 4 5 5 5 5 5 5 5 5 6 6 6 6 6 6 6 6 7 7 7 7 7 7 7 7 7 7 7 7 7 6 8 7 6 7 8 6 7 7 7 7 6 6 6 6 6 5 6 6 6 6 6 7 7
4 5 5 6 5 4 3 5 5 5 5 5 5 5 5 5 5 5 6 6 7 6 7 7 7 6 7 6 7 7 7 7 7 6 6 7 7 7 7 8 7 8 7 6 9 8 8 7 8 8 7 6 6 6 6 6 6 7 8 8 7 8
5 6 5 4 4 4 5 4 4 5 5 5 5 5 5 5 5 6 6 6 7 7 7 8 7 7 6 7 6 7 7 7 8 7 8 8 8 8 9 7 7 7 8 10 10 10 7 7 6 7 7 6 5 6 5 7 9 10 10 8 7 7
5 5 5 5 5 5 5 5 5 5 5 5 6 5 5 5 6 6 6 6 7 7 7 8 8 7 6 7 7 7 7 8 7 8 8 7 7 8 8 7 8 8 7 9 9 10 9 7 7 6 6 6 6 6 9 8 9 10 10 11 9 8
4 4 3 4 3 4 4 5 5 5 5 6 5 5 5 5 6 6 6 6 7 7 7 8 7 7 6 6 6 6 7 9 8 8 8 8 8 9 7 8 10 9 9 7 7 8 11 8 6 5 5 5 6 5 9 9 11 11 10 11 11 10
5 5 5 4 4 4 5 5 5 6 6 6 5 5 5 6 5 5 6 6 7 7 7 7 7 8 6 7 7 7 7 9 7 7 8 9 8 8 9 9 10 11 8 7 7 7 8 6 5 5 4 5 5 5 8 10 11 11 12 11 11 11
5 4 3 4 5 5 5 5 6 6 6 5 5 6 5 5 5 6 6 7 7 7 7 7 8 7 7 7 7 7 8 8 7 7 8 10 8 9 9 10 11 11 10 8 6 7 8 7 7 4 5 5 4 4 12 10 12 12 11 11 10 10
4 4 5 5 5 5 4 4 4 4 3 3 5 5 6 6 6 5 7 7 7 7 8 8 8 8 8 7 7 7 8 8 8 8 9 9 9 10 10 9 8 8 11 9 6 8 8 6 6 7 5 5 6 6 9 11 14 11 11 9 10 10
4 5 5 4 3 4 2 1 1 1 1 2 5 6 5 6 6 6 7 7 7 8 8 8 7 8 7 7 8 8 8 8 8 8 8 10 10 10 10 9 9 9 7 8 7 9 7 7 6 7 6 6 6 6 4 10 13 12 13 12 10 10
4 4 4 3 5 4 2 2 3 2 3 2 1 2 2 3 4 7 7 7 7 8 8 8 8 8 7 8 8 8 8 7 8 8 8 9 10 11 10 10 11 9 9 7 6 6 7 8 6 9 4 4 4 6 4 7 10 12 12 11 11 13
4 4 4 4 3 2 3 3 3 4 4 3 1 4 5 5 8 9 9 7 7 8 8 7 8 8 7 8 8 8 8 8 8 8 8 9 8 10 10 11 11 10 9 9 7 5 6 6 6 9 6 5 4 4 6 9 9 9 9 11 13 12
3 3 3 4 4 3 5 6 6 6 6 6 4 6 7 8 7 6 7 8 8 7 8 8 8 9 8 8 8 8 8 8 8 8 8 9 7 8 10 8 11 10 11 9 9 5 6 7 6 7 4 4 3 5 7 6 4 8 10 11 13 12
3 4 4 3 3 5 5 5 5 5 6 5 6 6 7 5 7 6 6 5 7 8 8 8 8 9 8 8 8 8 8 7 8 8 8 9 9 8 10 11 11 9 10 10 7 8 6 7 5 8 6 4 4 4 4 5 4 6 6 7 8 11
3 3 3 3 4 4 6 5 3 3 4 3 4 3 2 2 4 5 5 7 6 7 8 8 8 8 9 8 8 8 8 7 8 8 8 8 9 9 8 10 9 9 9 10 10 10 11 8 6 7 6 7 7 6 5 5 6 3 7 8 9 9
3 3 3 3 5 4 5 3 5 4 4 4 3 3 5 5 4 4 6 7 7 7 8 8 8 8 8 8 8 8 8 8 8 7 8 8 9 10 8 9 9 9 8 9 10 9 9 9 9 8 8 7 8 8 8 10 8 5 3 7 10 8
4 3 4 4 4 5 3 4 4 4 5 3 3 4 3 4 6 6 7 7 7 7 7 8 7 8 8 8 8 7 8 8 8 8 7 7 9 11 11 10 10 10 9 9 9 8 8 8 9 10 8 8 7 8 7 8 8 7 7 6 8 9
4 4 3 5 4 5 4 4 5 4 5 5 5 5 5 7 6 5 6 7 6 7 7 7 8 8 8 8 8 7 7 8 8 8 8 8 10 10 10 10 8 8 10 11 9 9 9 9 8 8 8 7 8 7 7 7 9 8 6 7 7 8
3 3 4 4 5 4 4 4 4 4 4 4 5 5 7 7 7 7 7 7 7 7 6 6 7 7 8 7 8 7 7 7 6 7 8 7 8 9 9 9 8 10 10 11 9 9 9 9 8 9 9 8 9 9 8 9 8 8 7 7 7 8
3 4 3 3 5 4 4 4 3 3 4 3 4 5 6 6 6 6 6 6 6 5 6 6 7 7 8 8 8 7 7 7 7 7 7 6 6 6 7 7 8 8 9 10 10 9 9 10 10 7 9 9 9 8 8 8 7 7 7 6 5 5
3 3 3 3 4 3 4 4 3 4 3 3 5 5 5 5 5 5 5 6 6 6 6 7 7 7 8 9 7 8 9 8 7 7 7 7 7 8 7 7 7 9 9 9 8 7 8 8 8 9 7 7 6 6 7 6 7 7 6 4 5 5
1 2 2 3 3 4 3 3 3 3 3 4 5 4 5 5 4 4 4 4 5 5 5 6 6 6 6 6 6 6 6 6 6 6 7 7 7 7 7 6 7 8 8 8 8 8 7 7 8 7 5 6 6 7 7 6 6 8 10 9 8 10
2 1 3 2 3 3 3 4 3 3 4 3 4 5 5 4 4 5 4 5 5 5 5 5 6 5 6 7 6 6 7 7 7 7 7 7 7 7 7 6 6 6 6 6 8 7 7 8 8 9 9 7 6 7 6 6 6 6 5 6 6 7
3 1 1 2 2 2 2 3 4 5 4 4 4 4 5 4 4 4 4 5 5 5 5 5 5 5 7 6 6 7 6 6 6 7 7 7 7 7 8 7 7 7 8 6 7 9 7 8 8 8 7 6 6 6 5 5 5 3 2 2 2 3
2 1 1 1 1 1 3 4 3 4 5 5 6 6 5 5 4 4 4 5 5 5 5 5 5 4 6 6 6 6 6 6 7 7 7 7 7 7 7 7 7 8 8 8 7 8 7 7 7 6 6 6 4 4 5 5 5 5 3 2 1 2
Wind_Direction
11 13 10 10 19 21 28 43 37 52 56 57 54 53 53 45 40 25 36 29 24 20 13 0 356 6 12 10 8 14 14 14 11 5 4 359 351 350 348 345 342 340 340 342 342 343 337 338 338 336 337 339 346 347 331 328 323 314 316 314 313 303
9 6 4 12 22 22 18 43 48 39 54 49 51 47 40 39 29 13 19 17 17 15 11 358 354 10 357 10 0 12 12 11 10 5 5 1 354 350 348 347 344 343 344 344 343 338 327 329 331 333 336 339 339 313 322 322 315 311 313 310 309 306
4 358 359 15 22 22 25 47 50 44 41 49 46 41 35 27 15 11 14 15 14 10 6 358 356 10 12 9 6 10 9 7 3 358 356 358 349 345 344 343 341 341 344 340 336 324 320 317 316 324 329 327 305 309 314 312 309 305 303 303 307 310
1 351 3 2 15 24 22 41 51 42 44 45 41 38 31 24 17 14 16 15 11 4 2 356 358 1 5 355 349 355 358 357 350 346 350 347 333 331 337 331 330 335 335 325 318 316 315 307 307 305 310 309 305 298 309 312 308 304 299 302 300 309
347 360 6 1 19 12 17 41 35 42 46 40 41 32 26 19 16 17 10 12 6 4 355 356 354 352 353 349 343 345 343 339 333 326 338 326 322 318 325 318 319 325 315 317 318 317 313 311 311 309 305 307 303 297 308 313 308 299 297 297 295 309
354 2 5 3 9 -0 32 34 18 31 37 39 29 29 25 15 13 8 6 1 7 2 358 356 350 351 347 342 341 340 336 330 328 324 330 323 320 323 322 318 320 317 315 312 310 309 312 313 308 308 307 309 304 301 310 309 305 300 299 297 300 310
8 353 359 358 20 27 32 34 21 34 50 33 15 32 19 10 5 8 10 353 13 2 356 349 345 343 342 338 340 335 332 328 328 327 325 324 317 319 318 319 321 316 305 314 316 314 310 309 307 305 307 310 311 304 311 307 303 302 301 299 301 310
356 5 349 354 27 27 11 38 37 27 29 39 31 29 13 7 7 13 6 357 3 5 352 348 347 345 339 338 339 332 326 330 328 322 320 322 322 324 324 326 322 320 329 331 321 313 306 304 309 308 300 310 309 308 309 310 306 301 298 298 300 307
358 358 357 350 32 11 19 42 42 34 23 34 24 21 5 13 19 1 359 358 354 354 354 354 350 344 334 341 333 332 328 326 324 329 331 330 329 326 327 330 328 333 331 334 330 325 318 317 310 303 304 308 310 310 314 310 308 305 303 302 301 303
354 352 349 14 21 23 10 43 39 34 16 29 17 2 18 20 6 1 350 354 355 354 1 351 345 342 345 335 331 328 331 334 334 335 338 333 330 325 324 325 326 334 337 334 335 329 329 316 314 317 313 319 310 313 311 308 309 307 308 306 305 306
357 354 7 25 16 25 24 35 27 21 28 26 14 18 20 9 -0 350 350 354 356 353 356 355 350 340 335 336 334 337 339 333 338 341 336 328 322 323 321 318 318 329 332 329 328 327 324 324 325 320 324 315 316 314 313 310 306 308 310 309 308 309
355 351 17 21 17 24 25 19 18 23 25 22 26 26 16 6 354 352 355 358 351 346 359 350 349 340 340 341 339 341 338 341 338 333 330 324 322 322 317 321 323 323 328 320 330 334 328 332 331 325 322 322 320 319 317 315 313 314 310 309 308 307
347 4 21 10 13 12 17 26 29 18 24 29 29 25 18 357 354 359 359 357 354 344 -0 350 343 345 342 343 342 341 338 334 331 328 329 326 325 325 331 328 329 331 325 324 330 329 327 336 337 329 325 326 324 320 318 314 312 313 313 312 313 311
3 6 10 6 20 17 19 21 34 27 29 31 26 28 10 0 2 3 356 359 356 346 357 346 351 347 351 345 341 338 332 332 331 328 329 334 337 333 329 325 325 322 324 324 320 330 335 343 339 330 329 327 324 317 316 315 317 311 306 315 318 310
358 3 6 8 14 14 24 30 31 40 34 27 27 24 4 5 7 357 359 358 357 347 357 351 350 351 342 342 341 338 335 331 327 332 336 340 337 332 328 328 328 327 319 324 345 344 344 342 341 333 330 330 323 320 324 324 323 329 332 323 318 310
1 7 3 3 12 25 36 40 36 47 39 36 30 18 3 1 359 359 2 359 357 351 358 350 347 349 340 341 343 337 330 328 337 343 345 341 341 337 337 326 330 327 329 344 347 351 344 347 335 329 333 327 322 328 329 341 346 349 344 332 322 315
3 353 355 2 24 35 43 45 40 36 45 39 33 13 0 358 8 2 359 359 352 353 353 349 347 347 342 342 344 337 333 336 342 348 344 340 338 336 335 333 334 336 332 345 345 348 347 345 334 334 333 331 335 338 356 356 356 1 355 356 343 338
7 1 359 3 26 40 48 53 44 35 38 37 21 12 3 8 6 358 358 355 352 356 351 347 348 346 343 342 344 336 333 344 346 348 344 343 338 339 338 343 347 342 347 343 344 349 347 335 337 340 336 341 342 332 11 9 12 9 7 3 2 359
7 357 2 12 27 47 52 56 50 38 34 23 8 8 13 8 359 358 1 351 360 357 348 349 349 346 348 348 347 343 343 345 347 346 347 346 344 339 346 348 350 351 353 349 344 343 339 325 345 347 332 336 327 345 23 25 21 18 13 6 6 3
5 347 2 33 31 35 47 47 41 25 26 6 -0 7 3 5 357 5 356 359 360 358 352 350 352 346 353 353 350 346 344 345 350 351 353 355 345 343 347 346 348 351 357 349 356 350 348 347 352 354 340 329 324 6 37 26 25 19 14 5 8 5
341 5 32 26 29 38 31 11 29 32 14 358 8 8 2 357 3 358 1 1 2 360 356 354 354 352 357 352 352 346 350 351 354 357 360 352 346 344 350 345 340 342 358 355 356 4 1 357 1 355 347 332 352 8 42 28 28 20 16 8 6 6
9 23 28 40 49 56 23 89 129 353 294 343 24 7 344 357 350 357 5 4 4 1 358 358 353 353 354 356 354 354 354 351 354 355 359 356 351 351 351 351 351 353 1 357 357 4 9 356 22 359 327 335 336 348 50 38 29 20 19 15 9 14
21 31 16 43 57 63 44 53 76 34 42 347 353 19 296 326 358 7 9 4 3 3 360 356 354 354 355 356 359 357 354 347 354 355 357 355 354 352 357 354 358 359 1 11 3 2 17 30 354 337 274 284 350 348 34 30 28 21 15 15 16 23
30 32 28 30 68 60 92 82 70 56 27 65 357 342 356 12 15 11 6 354 4 3 355 355 356 358 355 0 4 358 350 353 353 -0 1 358 352 352 354 359 4 2 6 8 359 351 25 21 5 1 14 351 310 334 5 19 14 10 10 16 20 18
35 37 26 40 43 54 49 38 28 26 27 10 1 10 17 9 7 2 0 360 349 353 358 359 359 1 0 0 2 359 355 352 360 0 4 1 354 353 356 358 7 5 8 8 358 348 7 13 358 22 16 351 341 21 22 346 338 18 10 18 15 15
39 36 34 28 45 60 57 66 48 44 29 15 11 10 9 350 346 354 341 316 348 1 0 1 2 0 3 360 2 358 355 359 3 2 8 7 2 356 359 3 11 8 7 7 2 5 356 10 11 18 22 30 44 36 1 336 356 22 358 27 16 21
37 43 27 36 39 59 57 58 76 97 95 60 30 333 302 315 346 333 336 2 351 356 3 5 -0 3 3 358 1 -0 360 5 6 2 7 6 8 6 356 7 8 9 8 8 12 26 31 18 14 16 6 16 35 41 23 19 28 286 12 358 17 9
19 43 22 34 38 42 72 57 59 45 54 46 30 350 349 350 355 358 9 6 357 -0 0 7 2 2 2 357 1 3 4 10 12 1 8 7 8 8 5 6 11 14 14 18 16 24 30 28 31 15 9 16 25 32 29 35 27 28 26 27 9 354
34 33 24 36 52 27 55 86 72 60 48 18 23 13 348 13 17 6 16 3 7 356 0 3 3 2 0 360 5 3 4 12 12 4 10 4 8 10 12 8 11 16 17 20 17 19 31 30 34 31 15 17 21 26 25 33 24 24 30 18 19 14
23 25 29 41 49 43 43 61 59 51 57 23 14 6 24 22 16 7 17 6 -0 2 0 360 357 359 1 3 4 3 6 13 10 4 11 4 4 6 7 14 13 18 26 28 19 19 27 30 33 30 28 24 34 23 29 30 25 12 8 22 28 4
3 24 33 40 50 42 46 55 70 65 60 39 17 29 27 20 11 15 13 2 5 355 353 358 354 354 5 2 5 2 6 8 15 13 10 3 7 8 7 10 10 20 31 33 21 19 22 31 31 27 25 28 37 38 38 44 31 25 25 13 4 7
27 28 32 38 53 38 53 48 59 59 58 52 44 44 40 28 12 14 5 4 354 353 -0 1 359 358 3 1 5 356 1 12 18 9 7 352 4 359 5 9 21 24 26 30 26 23 22 29 32 33 33 31 36 34 34 33 25 28 25 16 7 352
40 18 42 39 55 40 46 39 45 49 38 51 50 48 46 40 18 20 5 11 7 5 359 8 4 0 354 358 357 359 9 12 9 2 358 3 8 11 10 12 18 29 29 25 19 18 22 20 26 36 35 35 35 33 38 30 32 27 18 7 12 0
49 6 52 53 45 51 30 30 36 46 42 50 46 49 42 49 17 25 21 25 16 7 8 9 355 1 341 345 -0 359 2 6 4 358 4 3 11 13 14 13 12 23 27 24 21 19 21 15 30 32 24 37 36 35 37 28 24 27 24 19 15 18
102 45 70 59 50 50 29 29 25 38 37 41 61 47 45 51 40 34 22 33 21 13 18 1 2 346 347 358 360 1 4 9 6 7 3 8 6 14 18 15 18 13 19 18 26 22 23 24 23 23 32 32 34 34 22 20 22 21 9 18 17 8
146 133 94 80 40 49 33 41 34 42 33 42 51 55 47 40 37 40 34 37 27 18 15 12 2 0 354 3 2 5 3 9 6 8 8 6 9 13 12 20 18 15 15 7 21 24 12 20 21 12 19 18 29 17 2 353 2 3 358 350 356 352
123 83 97 94 79 54 55 56 33 44 41 45 47 52 53 45 38 30 40 33 30 17 19 20 7 4 360 6 4 12 5 8 9 7 10 10 10 14 14 23 21 17 14 360 19 22 13 16 7 1 7 14 6 358 353 332 327 340 334 326 339 4